User: anonymous   Login
Location: Unspecified
(0.0000°N, 0.0000°E)
Time: 09:28:47
(UTC+00:00)
Language:

AALTO-2 - Orbit

View from above orbital plane
View from above orbital plane
View from above satellite
View from above satellite

Ground track
Ground track

The orbit data is extracted from the following two-line orbital elements,

1 42729U 98067MJ  18267.25547666 +.00075634 +00000-0 +43272-3 0  9995
2 42729 051.6297 206.7444 0001104 147.3299 212.7771 15.78164069075976
Epoch (UTC): 24 September 2018 06:07:53
Eccentricity: 0.0001104
inclination: 51.6297°
perigee height: 335 km
apogee height: 336 km
right ascension of ascending node: 206.7444°
argument of perigee: 147.3299°
revolutions per day: 15.78164069
mean anomaly at epoch: 212.7771°
orbit number at epoch: 7597

The dashed part of the orbit path shows where the satellite is in the earth's shadow,  

DLR